Home > Time Zones > World Clock > Weather > Italy > Monza > Past weeks

Flag for Italy Weather past 2 weeks in Monza, Italy

Now
70 °F

Clear.


Feels Like: 70 °F
Forecast: 64 / 87 °F
Wind: No wind

Location: Milan / Linate

Current Time: Aug 30, 2015 at 4:32:50 AM

Latest Report: Aug 30, 2015 at 3:50 AM


Visibility: 10 mi

Pressure: 30.15 "Hg

Humidity: 88%

Dew point: 66 °F

Location of MonzaLocation

Historic Weather in Monza — Graph

°F

Monza temperature yesterday

Maximum temperature yesterday: 91 °F (at 4:20 PM)
Minimum temperature yesterday: 70 °F (at 2:50 AM)
Average temperature yesterday: 80 °F

Past Weeks' High & Low Weather Summary

 TemperatureHumidityPressure
High91 °F (Aug 29, 4:20 PM)100% (Aug 24, 6:50 AM)30.21 "Hg (Aug 24, 6:50 AM)
Low63 °F (Aug 16, 3:50 AM)35% (Aug 28, 6:50 PM)29.71 "Hg (Aug 17, 6:20 PM)
Average72 °F71%29.98 "Hg
* Reported Aug 15 3:20 AM — Aug 30 3:20 AM, Monza, Weather by CustomWeather, © 2015

Note: Actual official high and low records may vary slightly from our data, if they occured in-between our weather recording intervals... More about our weather records

Advertising

Monza weather history for previous 24 hours

 ConditionsComfort  
Time TempWeatherWind HumidityBarometerVisibility
3:20 AM
Sun, Aug 30
70 °FClear.2 mph88%30.15 "Hg10 mi
2:50 AM72 °FClear.2 mph83%30.15 "Hg10 mi
2:20 AM72 °FClear.No wind83%30.15 "Hg10 mi
1:50 AM73 °FClear.1 mph78%30.15 "Hg10 mi
1:20 AM73 °FClear.No wind78%30.15 "Hg10 mi
12:50 AM75 °FClear.2 mph74%30.15 "Hg10 mi
12:20 AM75 °FClear.2 mph78%30.15 "Hg10 mi
11:50 PM
Sat, Aug 29
77 °FClear.2 mph74%30.15 "Hg10 mi
10:50 PM77 °FClear.No wind69%30.15 "Hg10 mi
10:20 PM75 °FClear.1 mph74%30.15 "Hg10 mi
9:50 PM79 °FClear.1 mph70%30.15 "Hg10 mi
9:20 PM79 °FClear.3 mph70%30.15 "Hg10 mi
8:50 PM81 °FSunny.2 mph66%30.15 "Hg10 mi
8:20 PM81 °FSunny.3 mph62%30.12 "Hg10 mi
7:50 PM86 °FSunny.3 mph49%30.12 "Hg10 mi
7:20 PM88 °FSunny.5 mph43%30.12 "Hg10 mi
6:50 PM90 °FPassing clouds.3 mph41%30.12 "HgN/A
6:20 PM90 °FPassing clouds.6 mph41%30.12 "HgN/A
5:50 PM91 °FPassing clouds.5 mph38%30.12 "HgN/A
5:20 PM91 °FPassing clouds.6 mph38%30.12 "HgN/A
4:50 PM91 °FPassing clouds.6 mph38%30.15 "HgN/A
4:20 PM91 °FPassing clouds.3 mph38%30.15 "HgN/A
3:50 PM90 °FPassing clouds.3 mph41%30.15 "HgN/A
3:20 PM90 °FPassing clouds.5 mph43%30.15 "HgN/A
2:50 PM88 °FPassing clouds.3 mph46%30.15 "HgN/A
2:20 PM90 °FPassing clouds.3 mph41%30.18 "HgN/A
1:50 PM88 °FPassing clouds.3 mph46%30.18 "HgN/A
1:20 PM86 °FSunny.3 mph49%30.18 "Hg10 mi
12:50 PM86 °FSunny.3 mph52%30.18 "Hg10 mi
11:50 AM84 °FSunny.3 mph58%30.21 "Hg10 mi
11:20 AM82 °FPassing clouds.3 mph66%30.21 "HgN/A
10:50 AM81 °FSunny.3 mph70%30.21 "Hg10 mi
9:20 AM77 °FSunny.2 mph79%30.21 "Hg10 mi
8:50 AM77 °FSunny.2 mph74%30.18 "Hg10 mi
7:50 AM73 °FSunny.No wind83%30.18 "Hg10 mi
7:20 AM70 °FClear.No wind88%30.18 "Hg10 mi
6:50 AM70 °FClear.1 mph88%30.18 "Hg10 mi
6:20 AM70 °FClear.1 mph88%30.18 "Hg10 mi
5:50 AM70 °FClear.No wind88%30.18 "Hg10 mi
4:50 AM72 °FClear.5 mph83%30.15 "Hg10 mi
4:20 AM72 °FClear.3 mph83%30.18 "Hg10 mi
Weather by CustomWeather, © 2015

See weather overviewHow to use our weather pages